Location: Kitchener
(43.4500°N, 80.5000°W)
Time: 17:29:38
(UTC-04:00)

Daily predictions for brighter satellites

Satellite Brightness Start Highest point End
(mag) Time Altitude Azimuth Time Altitude Azimuth Time Altitude Azimuth
Cosmos 2208 Rocket 4.3 21:17:54 10° SSW 21:23:04 73° WNW 21:28:15 10° NNE
Cosmos 1378 Rocket 4.2 21:21:40 10° SSW 21:25:54 58° W 21:30:10 10° N
Cosmos 2333 Rocket 4.3 21:24:46 10° N 21:27:59 15° NE 21:31:11 10° ENE
SJ-11-01 4.5 21:25:06 10° S 21:29:49 78° WSW 21:34:35 10° NNW
COSMOS 2428 4.3 21:26:58 10° N 21:31:20 22° NE 21:35:42 10° E
Cosmos 1975 Rocket 3.0 21:28:05 10° S 21:32:23 77° E 21:36:43 10° N
Cosmos 2084 3.7 21:28:36 10° SW 21:32:54 74° NW 21:36:59 10° NE
Okean 1 Rocket 4.3 21:29:51 10° NNW 21:33:58 43° W 21:38:03 10° SSW
ATLAS CENTAUR R/B 4.5 21:37:58 10° W 21:39:10 11° WSW 21:40:24 10° WSW
Cosmos 1833 4.5 21:34:14 10° S 21:39:41 47° ESE 21:45:06 10° NE
Cosmos 1242 Rocket 3.1 21:38:09 10° NNW 21:41:46 60° W 21:45:17 10° S
ARGOS 3.4 21:38:05 10° SSE 21:43:19 54° ENE 21:48:35 10° N
Meteor 2-4 Rocket 3.7 21:38:21 10° S 21:43:43 61° E 21:49:15 10° NNE
CZ-4B DEB 4.4 21:42:32 10° SSE 21:46:00 77° ENE 21:49:29 10° N
Cosmos 540 Rocket 4.0 21:41:29 10° SSE 21:46:12 37° ESE 21:50:56 10° NE
Terra 4.0 21:44:21 10° E 21:46:12 12° ENE 21:48:02 10° NE
Helios 1B rocket 4.5 21:45:37 10° ENE 21:46:53 11° E 21:48:10 10° ESE
Cosmos 1544 Rocket 3.7 21:42:56 10° N 21:47:20 60° E 21:51:43 10° SSE
Cosmos 2150 Rocket 4.1 21:42:09 10° NNW 21:47:34 83° ENE 21:52:51 10° SSE
Cosmos 1515 4.5 21:44:42 10° SSE 21:48:10 33° E 21:51:39 10° NNE
USA 186 4.4 21:46:24 10° SW 21:48:54 20° W 21:51:31 10° NW
SPOT 5 4.2 21:47:09 10° ESE 21:50:33 23° ENE 21:54:11 10° NNE
Cosmos 2322 Rocket 2.7 21:45:52 10° NNW 21:51:22 57° WSW 21:56:49 10° S
Shenzhou-11 Module 2.8 21:49:48 10° W 21:52:34 35° SSW 21:54:34 16° SE
Cosmos 2322 4.1 21:47:48 10° NNW 21:53:24 51° ENE 21:58:16 13° SE
Lacrosse 5 rocket 1.5 21:49:37 10° NW 21:54:00 71° NE 21:57:27 14° SE
Abrixas rocket 3.5 21:51:31 10° W 21:54:36 41° NNW 21:57:42 10° ENE
Spot 2 Rocket 4.1 21:49:54 10° S 21:54:50 57° W 21:59:49 10° NNW
Cosmos 2237 Rocket 4.4 21:51:58 10° NNE 21:54:51 14° NE 21:57:42 10° ENE
SJ 16-02 2.1 21:51:01 10° N 21:55:13 40° ENE 21:58:37 14° SE
Cosmos 1937 Rocket 4.1 21:53:29 10° NNW 21:58:31 55° WSW 22:03:30 10° S
Cosmos 1763 Rocket 3.9 21:54:41 10° SSW 21:59:58 68° WNW 22:05:14 10° NNE
Tiangong 2 1.0 21:57:06 10° W 22:00:16 81° S 22:03:04 12° E
SL-16 R/B 3.2 21:56:51 10° NW 22:02:13 44° WSW 22:07:32 10° S
Cosmos 1536 Rocket 3.8 22:01:33 10° S 22:05:51 54° E 22:10:14 10° NNE
BREEZE M DEB (TANK) 3.5 21:55:39 10° WNW 22:06:34 65° SW 22:09:21 18° SE
ISS -1.2 22:04:13 10° WNW 22:06:49 21° N 22:09:26 10° NE
Cosmos 841 Rocket 3.6 22:02:09 10° SSW 22:07:24 83° WNW 22:12:42 10° NNE
Cosmos 292 Rocket 3.8 22:02:59 10° SSW 22:07:44 85° WNW 22:12:31 10° NNE
MetOp-B 4.2 22:02:54 12° SSE 22:07:52 75° ENE 22:13:14 10° N
Cosmos 372 Rocket 4.2 22:09:23 10° NNW 22:14:26 57° ENE 22:18:02 19° SE
USA 234 3.2 22:08:01 10° NE 22:14:35 75° SE 22:21:09 10° SW
Resurs 01 Rocket 3.7 22:11:55 10° SSW 22:15:26 23° W 22:19:00 10° NW
CZ-4C R/B 3.3 22:09:48 10° NNW 22:16:44 54° NE 22:23:08 16° ESE
Cosmos 1340 Rocket 3.1 22:13:32 10° SSW 22:17:34 69° W 22:21:40 10° N
USA 32 4.3 22:16:25 10° N 22:21:38 68° W 22:26:48 10° S
Nadezhda 4 Rocket 4.2 22:16:55 10° N 22:23:08 57° ENE 22:27:44 19° SSE
DELTA 2 R/B (1) 4.5 22:18:41 10° SSW 22:23:13 26° SSE 22:26:36 15° ESE
Cosmos 2219 4.1 22:20:18 18° SSE 22:23:37 30° ESE 22:28:34 10° NE
Cosmos 2237 4.2 22:19:21 10° NNW 22:25:08 86° ENE 22:29:15 20° SSE
SL-08 RB Rocket 3.8 22:24:27 15° S 22:28:07 75° WSW 22:32:44 10° NNW
ERS-1 Rocket 3.0 22:27:39 18° SSE 22:31:28 88° W 22:36:31 10° NNW
CZ-2C R/B 4.2 22:32:20 10° NE 22:36:06 18° E 22:37:25 17° ESE
CARTOSAT-1 4.4 22:35:58 24° ESE 22:37:54 36° ENE 22:41:51 10° N
Cosmos 2360 Rocket 2.7 22:34:16 10° NNW 22:39:44 53° WSW 22:43:55 17° S
CENTAUR R/B 3.2 22:34:15 10° SW 22:40:13 60° NW 22:47:09 10° NNE
Cosmos 2219 Rocket 2.6 22:37:07 10° NNW 22:42:34 50° ENE 22:45:43 24° SE
Cosmos 1025 Rocket 3.1 22:40:14 25° SSE 22:42:39 61° E 22:46:59 10° NNE
Meteor 1-15 Rocket 4.4 22:37:52 10° NNW 22:43:36 74° W 22:47:48 18° S
Iridium 90 3.7 22:44:44 52° WSW 22:44:55 55° W 22:47:03 10° N
Cosmos 2333 4.2 22:41:31 10° NNW 22:47:13 81° ENE 22:50:29 27° SSE
CZ-2C R/B 3.9 22:50:58 24° ESE 22:53:39 41° ENE 22:58:56 10° N
Cosmos 1606 Rocket 4.3 22:50:31 10° N 22:54:44 40° ENE 22:56:10 31° ESE
Okean 2 3.5 22:53:27 21° SSW 22:56:13 74° W 23:00:24 10° N
Meteor 1-29 3.3 22:53:34 10° NNE 22:56:56 45° E 22:57:17 43° ESE
SPOT 1/Viking Rocket 3.5 22:55:11 26° S 22:58:09 84° WSW 23:03:20 10° NNW
Cosmos 1125 Rocket 3.7 22:54:05 10° NNW 22:59:17 64° WSW 23:02:08 26° S
Cosmos 783 Rocket 4.5 22:56:58 23° S 23:00:11 64° ESE 23:05:27 10° NNE
H-2A R/B 3.1 22:57:46 14° SSW 23:01:39 37° W 23:06:20 10° NNW
Cosmos 2034 Rocket 4.4 22:55:36 10° SSW 23:01:41 61° W 23:07:48 10° N
USA 245 4.4 23:00:38 22° SSW 23:02:43 41° W 23:07:04 10° NNW
Helios 1A 3.3 23:00:58 29° S 23:02:56 61° WSW 23:07:05 10° NNW
Landsat 7 3.8 23:02:11 32° SSE 23:04:25 88° WSW 23:09:13 10° NNW
BREEZE-M DEB 3.8 23:01:18 10° WNW 23:04:33 76° NNE 23:04:39 75° NE
Cosmos 1805 4.3 23:06:04 10° NNE 23:09:34 30° ENE 23:10:05 29° E
Cosmos 1356 Rocket 3.8 23:07:09 22° SSW 23:09:47 65° WNW 23:14:05 10° N
Cosmos 1842 4.4 23:10:31 28° E 23:10:31 28° E 23:13:49 10° NNE
Cosmos 2333 Rocket 2.2 23:07:30 10° NNW 23:13:15 77° ENE 23:15:46 35° SE
SL-16 R/B 4.0 23:09:15 10° N 23:13:31 21° NE 23:16:59 13° E
COSMOS 2455 3.5 23:14:03 31° SE 23:15:07 34° ESE 23:20:28 10° NE
Cosmos 1174 4.4 23:13:07 10° NNW 23:15:56 32° NE 23:16:13 32° ENE
COSMOS 2428 2.9 23:10:28 10° NNW 23:16:06 66° WSW 23:18:42 32° S
Cosmos 2195 Rocket 4.4 23:11:44 10° N 23:17:53 75° E 23:20:46 34° SSE
YAOGAN 11 4.2 23:19:00 44° SE 23:20:18 70° ENE 23:24:51 10° N
Cosmos 1627 Rocket 4.4 23:14:12 10° N 23:20:22 74° E 23:23:06 35° SSE
Spot 1 3.9 23:19:22 46° S 23:20:30 75° WSW 23:24:35 10° NNW
Helios 1B rocket 2.8 23:18:29 10° N 23:22:36 64° WNW 23:24:33 29° SW
Cosmos 1980 4.0 23:17:07 10° NNW 23:22:40 55° ENE 23:24:56 34° ESE
Terra 1.7 23:21:33 41° S 23:23:13 87° WSW 23:28:01 10° NNW
Cosmos 773 Rocket 4.4 23:23:50 39° SE 23:24:39 42° ESE 23:29:29 10° NNE
Cosmos 1634 Rocket 4.0 23:23:14 28° S 23:26:48 87° E 23:33:10 10° N
SPOT 5 3.8 23:26:23 24° SSW 23:28:24 37° W 23:32:41 10° NNW
Cosmos 2297 Rocket 2.7 23:29:01 37° SE 23:29:52 39° ESE 23:35:05 10° NE
Nimbus 7 Rocket 4.3 23:24:01 10° NNE 23:29:56 76° ESE 23:32:43 33° S
Abrixas rocket 3.8 23:28:29 10° WNW 23:31:27 33° N 23:32:55 22° NE
Cosmos 1892 Rocket 3.4 23:31:41 56° SSE 23:32:25 70° E 23:36:46 10° NNE
Lacrosse 5 rocket 3.4 23:30:04 10° W 23:32:41 16° WSW 23:33:08 16° SW
SJ 16-02 3.4 23:30:18 10° NW 23:33:30 20° W 23:35:38 14° SW
Cosmos 2227 Rocket 2.5 23:32:28 41° SE 23:33:39 47° ESE 23:39:04 10° NE
IGS 5A 4.0 23:35:34 39° SW 23:36:37 50° W 23:40:41 10° NNW
Tiangong 2 3.0 23:33:52 10° W 23:35:15 22° WSW 23:35:15 22° WSW
Cosmos 2228 2.9 23:33:35 10° N 23:37:53 74° E 23:38:31 61° SE
Cosmos 2237 Rocket 2.3 23:34:18 10° NNW 23:40:00 70° ENE 23:41:55 42° SE
Cosmos 1953 3.6 23:39:57 10° NNE 23:43:26 28° ENE 23:43:28 28° ENE
BREEZE-M R/B 4.2 23:41:39 10° NW 23:43:48 21° N 23:44:30 19° NNE
ISS -1.3 23:41:29 10° NW 23:44:05 21° N 23:46:13 13° ENE
SAR-Lupe-4 3.9 23:44:23 52° ENE 23:44:23 52° ENE 23:47:45 10° N
Iridium 4 Rocket 4.1 23:46:41 41° SE 23:48:11 50° E 23:53:53 10° NNE
Cosmos 2082 4.0 23:48:07 44° SE 23:48:59 47° ESE 23:54:28 10° NE
Cosmos 1726 Rocket 3.8 23:45:14 10° NNW 23:49:38 64° W 23:50:28 51° SW
Okean 1-7 Rocket 4.5 23:48:21 28° SW 23:50:18 46° WNW 23:54:41 10° N
